This demonstration page uses our WeatherBlox Daily Observations layout. Learn more.

Left ArrowRight Arrow

34.02893, -84.19858

Hourly Observations for July 18, 2018

Temp ( °F °C ) Dew Point ( °F °C ) Humidity (%) Winds ( mph kmh ) Pressure ( in mb ) Visibility ( mi km ) Precip ( " mm )
12:53 am 00:53 Clear 78 25.6 72 22.2 82 82 WNW 3 6 29.94 1014 10 16 0.00 0.00
1:53 am 01:53 Clear 77 25 72 22.2 85 85 WNW 7 11 29.92 1013 10 16 0.00 0.00
2:53 am 02:53 Clear 76 24.4 72 22.2 88 88 WNW 3 6 29.91 1013 10 16 0.00 0.00
3:53 am 03:53 Clear 75 23.9 72 22.2 90 90 WNW 5 7 29.89 1012 10 16 0.00 0.00
4:53 am 04:53 Clear 75 23.9 72 22.2 90 90 Calm 29.89 1012 10 16 0.00 0.00
5:53 am 05:53 Clear 73 22.8 72 22.2 96 96 W 3 6 29.89 1012 10 16 0.00 0.00
6:53 am 06:53 Sunny 73 22.8 72 22.2 96 96 W 3 6 29.92 1013 9 14 0.00 0.00
7:53 am 07:53 Sunny 74 23.3 72 22.2 94 94 WNW 5 7 29.94 1014 8 13 0.00 0.00
8:53 am 08:53 Sunny 78 25.6 72 22.2 82 82 NW 3 6 29.96 1014 10 16 0.00 0.00
9:53 am 09:53 Sunny 81 27.2 71 21.7 72 72 Calm 29.95 1014 10 16 0.00 0.00
10:53 am 10:53 Sunny 82 27.8 71 21.7 69 69 N 3 6 29.95 1014 10 16 0.00 0.00
11:53 am 11:53 Sunny 85 29.4 71 21.7 63 63 Calm 29.95 1014 10 16 0.00 0.00
12:53 pm 12:53 Sunny 88 31.1 70 21.1 55 55 N 8 13 29.93 1014 10 16 0.00 0.00
1:53 pm 13:53 Sunny 89 31.7 70 21.1 53 53 N 7 11 29.91 1013 10 16 0.00 0.00
2:53 pm 14:53 Sunny 90 32.2 67 19.4 47 47 E 6 9 29.90 1013 10 16 0.00 0.00
3:53 pm 15:53 Mostly Sunny 91 32.8 68 20 47 47 N 6 9 29.88 1012 10 16 0.00 0.00
4:53 pm 16:53 Sunny 91 32.8 67 19.4 45 45 NNE 8 13 29.86 1011 10 16 0.00 0.00
5:53 pm 17:53 Mostly Sunny 91 32.8 66 18.9 44 44 NW 6 9 29.85 1011 10 16 0.00 0.00
6:53 pm 18:53 Partly Cloudy 89 31.7 69 20.6 52 52 N 5 7 29.85 1011 10 16 0.00 0.00
7:53 pm 19:53 Sunny 87 30.6 70 21.1 57 57 NNW 6 9 29.86 1011 10 16 0.00 0.00
8:53 pm 20:53 Clear 84 28.9 71 21.7 65 65 NNW 7 11 29.87 1012 10 16 0.00 0.00
9:46 pm 21:46 Clear with Nearby Thunderstorms 81 27.2 69 20.6 67 67 Calm 29.88 1012 10 16 0.00 0.00
9:53 pm 21:53 Partly Cloudy with Nearby Thunderstorms 82 27.8 69 20.6 65 65 SE 3 6 29.89 1012 10 16 0.00 0.00
10:46 pm 22:46 Mostly Cloudy 81 27.2 70 21.1 69 69 Calm 29.91 1013 10 16 0.00 0.00
10:53 pm 22:53 Mostly Cloudy 80 26.7 71 21.7 74 74 S 6 9 29.91 1013 10 16 0.00 0.00
11:53 pm 23:53 Clear 79 26.1 71 21.7 77 77 Calm 29.90 1013 10 16 0.00 0.00

Powered by AerisWeather